This is the latest recevied weather packets stored in our database for station/object NC4M. If no packets are shown the sender has not sent any weather packets the latest 10 day(s).
| Time | Temp. | Humidity | Pressure | Rain* | Wind** | Luminosity | Snow |
|---|---|---|---|---|---|---|---|
| 1777844463 | 27.22° C | 31% | 1011.2 hPa | 0 mm | - | 472 W/m² | - |
| 1777844162 | 26.67° C | 34% | 1011.2 hPa | 0 mm | - | 487 W/m² | - |
| 1777843858 | 27.22° C | 31% | 1011.3 hPa | 0 mm | - | 505 W/m² | - |
| 1777843556 | 27.22° C | 34% | 1011.4 hPa | 0 mm | - | 516 W/m² | - |
| 1777843253 | 26.67° C | 33% | 1011.4 hPa | 0 mm | - | 532 W/m² | - |
| 1777842950 | 27.22° C | 32% | 1011.5 hPa | 0 mm | - | 547 W/m² | - |
| 1777842645 | 27.22° C | 34% | 1011.6 hPa | 0 mm | - | 560 W/m² | - |
| 1777842343 | 26.67° C | 35% | 1011.9 hPa | 0 mm | - | 574 W/m² | - |
| 1777842038 | 27.22° C | 35% | 1011.8 hPa | 0 mm | - | 590 W/m² | - |
| 1777841735 | 27.78° C | 35% | 1012.1 hPa | 0 mm | - | 605 W/m² | - |
| 1777841432 | 27.22° C | 36% | 1011.9 hPa | 0 mm | - | 615 W/m² | - |
| 1777841129 | 27.22° C | 30% | 1012.1 hPa | 0 mm | - | 631 W/m² | - |
| 1777840826 | 26.67° C | 35% | 1012.2 hPa | 0 mm | - | 644 W/m² | - |
| 1777840523 | 26.67° C | 34% | 1012.3 hPa | 0 mm | - | 657 W/m² | - |
| 1777840220 | 26.11° C | 35% | 1012.4 hPa | 0 mm | - | 672 W/m² | - |
| 1777839918 | 26.11° C | 33% | 1012.5 hPa | 0 mm | - | 426 W/m² | - |
| 1777839615 | 26.11° C | 34% | 1012.5 hPa | 0 mm | - | 344 W/m² | - |
| 1777839314 | 26.11° C | 35% | 1012.6 hPa | 0 mm | - | 577 W/m² | - |
| 1777839010 | 26.11° C | 30% | 1012.8 hPa | 0 mm | - | 118 W/m² | - |
| 1777838707 | 26.11° C | 34% | 1012.9 hPa | 0 mm | - | 75 W/m² | - |
| 1777838403 | 25.56° C | 35% | 1013.2 hPa | 0 mm | - | 163 W/m² | - |
| 1777838100 | 25.56° C | 34% | 1013.1 hPa | 0 mm | - | 91 W/m² | - |
| 1777837797 | 25.56° C | 32% | 1013.3 hPa | 0 mm | - | 73 W/m² | - |
| 1777837495 | 25.56° C | 33% | 1013.4 hPa | 0 mm | - | 91 W/m² | - |
| 1777837189 | 25.56° C | 32% | 1013.4 hPa | 0 mm | - | 76 W/m² | - |
* Rain latest hour (hover to see other rain measurements)
** Current wind speed in m/s (hover to see current wind gust speed)